Погода в Новой Усадьбе

Россия / Ивановская область     57°01′05″N   40°22′07″E
темп.,
°C
ветер,
м/с
пор.,
м/с
влажн.,
%
обл.,
%
осадки,
мм/ч
давл.,
гПа
погр.,
м
9 мая, вс
вс900:00+9юв51395100 3.9 1002876
03:00+9ююв3998100 5.7 1002570
06:00+9зсз2498100 2.5 1003221
09:00+8сз4797100 2.6 1005480
12:00+5сз4995100 0.1 1008470
15:00+4ссз61296100 0.7 1011637
18:00+5ссз61291100 1.9 10131004
21:00+5ссз31185100 2.3 1016659
10 мая, пн
пн1000:00+3сз3118865 0.0 1019363
03:00+2ссз412851 0.0 1022368
06:00+2ссз312831 0.0 1025391
09:00+9с59510 0.0 10261111
12:00+12с56400 0.0 10271426
15:00+13ссв45390 0.0 10271467
18:00+12ссв35500 0.0 10281097
21:00+6ссв22730 0.0 102920
11 мая, вт
вт1100:00+5св22740 0.0 103039
03:00+4св23784 0.0 103056
06:00+6св267535 0.0 1031153
09:00+12всв46524 0.0 1030668
12:00+16всв45400 0.0 10301028
15:00+18всв34405 0.0 10291049
18:00+17всв36545 0.0 1029561
21:00+11всв23780 0.0 102947
12 мая, ср
ср1200:00+10всв36790 0.0 102991
03:00+9всв389052 0.0 1028135
06:00+11всв310858 0.0 1028250
09:00+18в586672 0.0 1027574
12:00+22вюв595282 0.0 10271734
15:00+19юв476186 0.0 1027832
18:00+19юв2767100 0.0 1025593
21:00+15вюв2885100 0.3 1025186
13 мая, чт
чт1300:00+14вюв3128899 0.1 1024307
03:00+13вюв41287100 0.1 1024316
06:00+13вюв3108599 0.0 1024339
09:00+17юв5116368 0.0 1024833
12:00+21юв5105088 0.0 10231371
15:00+22юв6104750 0.0 10221644
18:00+18вюв3106993 0.0 1021500
21:00+15вюв3986100 0.0 1021210